Sydney, Australia

6:57 PM AEST on June 26, 2017 (GMT +1000)
Kingsford Smith International

Weather History for YSSY - August, 2013

Change the Weather History Date:

Sunday, August 11, 2013

  Actual Average Record
Temperature  
Mean Temperature 59 °F -  
Max Temperature 71 °F 66 °F 80 °F (2002)
Min Temperature 47 °F 47 °F 41 °F (1997)
Degree Days  
Heating Degree Days 6    
Growing Degree Days 9 (Base 50)    
Moisture  
Dew Point 39 °F    
Average Humidity 44    
Maximum Humidity 66    
Minimum Humidity 10    
Precipitation  
Precipitation 0.00 in 0.10 in - ()
Sea Level Pressure  
Sea Level Pressure 29.97 in    
Wind  
Wind Speed 8 mph ()    
Max Wind Speed 15 mph    
Max Gust Speed -    
Visibility 15.2 miles    
Events      
Averages and records for this station are not official NWS values.
T = Trace of Precipitation, MM = Missing Value Source: Averaged Metar Reports

Daily Weather History Graph

Daily Weather History Graph

Search for Another Location

Airport or City:

Trip Planner

Search our weather history database for the weather conditions in past years. The results will help you decide how hot, cold, wet, or windy it might be!

Date:

Astronomy

Aug. 11, 2013 Rise Set
Actual Time 6:38 AM AEST 5:22 PM AEST
Civil Twilight 6:12 AM AEST 5:48 PM AEST
Nautical Twilight 5:43 AM AEST 6:18 PM AEST
Astronomical Twilight 5:14 AM AEST 6:47 PM AEST
Moon 8:39 AM AEST (8/11) 9:34 PM AEST (8/11)
Length of Visible Light 11h 35m
Length of Day
10h 43m
Waxing Crescent, 17% of the Moon is Illuminated
Aug 11
Waxing Crescent
Aug 14
First Quarter
Aug 21
Full
Aug 28
Last Quarter
Sep 5
New

Hourly Weather History & Observations

Time (AEST) Temp. Dew Point Humidity Pressure Visibility Wind Dir Wind Speed Gust Speed Precip Events Conditions
12:00 AM 56 °F 41 °F 46% 30.02 in 19 mi WNW 8.1 mph - -   Partly Cloudy
12:00 AM 55.4 °F 41.0 °F 58% 30.01 in - WNW 8.1 mph - N/A   Clear
12:30 AM 55.4 °F 41.0 °F 58% 30.01 in - West 8.1 mph - N/A   Clear
1:00 AM 56 °F 40 °F 45% 30.02 in - West 8.1 mph - -  
1:00 AM 55.4 °F 41.0 °F 58% 30.01 in - West 8.1 mph - N/A   Clear
1:30 AM 55.4 °F 41.0 °F 58% 30.01 in - West 9.2 mph - N/A   Clear
2:00 AM 54 °F 40 °F 49% 30.01 in - WSW 10.4 mph - -  
2:00 AM 55.4 °F 41.0 °F 58% 30.01 in - WSW 10.4 mph - N/A   Clear
3:00 AM 53 °F 39 °F 47% 30.01 in 19 mi WSW 9.2 mph - -   Partly Cloudy
3:00 AM 53.6 °F 39.2 °F 58% 30.01 in - WSW 9.2 mph - N/A   Clear
3:30 AM 53.6 °F 39.2 °F 58% 29.98 in - WSW 8.1 mph - N/A   Clear
4:00 AM 53 °F 38 °F 45% 30.00 in - WSW 10.4 mph - -  
4:30 AM 53.6 °F 37.4 °F 54% 30.01 in - WSW 8.1 mph - N/A   Clear
5:00 AM 52 °F 38 °F 49% 30.01 in - West 9.2 mph - -  
5:00 AM 51.8 °F 39.2 °F 62% 30.01 in - West 9.2 mph - N/A   Clear
5:30 AM 50.0 °F 39.2 °F 66% 30.01 in - West 10.4 mph - N/A   Clear
6:00 AM 50.0 °F 39.2 °F 66% 30.01 in - West 8.1 mph - N/A   Clear
6:30 AM 50.0 °F 37.4 °F 62% 30.04 in - West 8.1 mph - N/A   Clear
7:00 AM 52 °F 38 °F 48% 30.05 in - NNW 5.8 mph - -  
7:00 AM 51.8 °F 37.4 °F 58% 30.04 in - NNW 5.8 mph - N/A   Clear
7:30 AM 51.8 °F 39.2 °F 62% 30.04 in - NW 12.7 mph - N/A   Clear
8:00 AM 53 °F 39 °F 48% 30.06 in - NW 13.8 mph - -  
8:00 AM 53.6 °F 39.2 °F 58% 30.04 in - NW 13.8 mph - N/A   Clear
8:30 AM 57.2 °F 39.2 °F 51% 30.06 in - WNW 15.0 mph - N/A   Clear
9:00 AM 58 °F 40 °F 39% 30.07 in 19 mi West 10.4 mph - -   Partly Cloudy
9:00 AM 59.0 °F 39.2 °F 48% 30.06 in - West 10.4 mph - N/A   Clear
9:30 AM 59.0 °F 39.2 °F 48% 30.04 in - West 9.2 mph - N/A   Clear
10:00 AM 62 °F 41 °F 34% 30.05 in - West 12.7 mph - -  
10:00 AM 62.6 °F 41.0 °F 45% 30.04 in - West 12.7 mph - N/A   Clear
10:30 AM 64.4 °F 39.2 °F 40% 30.04 in - West 12.7 mph - N/A   Clear
11:00 AM 65 °F 39 °F 27% 30.03 in - WNW 10.4 mph - -  
11:00 AM 64.4 °F 39.2 °F 40% 30.01 in - WNW 10.4 mph - N/A   Clear
11:30 AM 66.2 °F 33.8 °F 30% 30.01 in - NW 12.7 mph - N/A   Clear
12:00 PM 68 °F 33 °F 17% 30.00 in 19 mi NW 10.4 mph - -   Partly Cloudy
12:00 PM 68.0 °F 33.8 °F 28% 29.98 in - NW 10.4 mph - N/A   Clear
1:00 PM 70 °F 29 °F 12% 29.96 in - WNW 9.2 mph - -  
1:00 PM 69.8 °F 28.4 °F 21% 29.95 in - WNW 9.2 mph - N/A   Clear
1:30 PM 69.8 °F 28.4 °F 21% 29.95 in - West 9.2 mph - N/A   Clear
2:00 PM 71 °F 26 °F 10% 29.94 in - NW 4.6 mph - -  
2:00 PM 71.6 °F 26.6 °F 19% 29.92 in - NW 4.6 mph - N/A   Clear
2:30 PM 71.6 °F 24.8 °F 17% 29.92 in - NNW 5.8 mph - N/A   Clear
3:00 PM 70 °F 26 °F 10% 29.93 in 19 mi SE 8.1 mph - -   Partly Cloudy
3:00 PM 69.8 °F 26.6 °F 20% 29.92 in - SE 8.1 mph - N/A   Clear
3:30 PM 69.8 °F 26.6 °F 20% 29.92 in - East 6.9 mph - N/A   Clear
4:00 PM 69 °F 39 °F 22% 29.91 in - East 6.9 mph - -  
4:00 PM 69.8 °F 39.2 °F 33% 29.89 in - East 6.9 mph - N/A   Clear
4:30 PM 68.0 °F 41.0 °F 37% 29.89 in - NE 10.4 mph - N/A   Clear
5:00 PM 65 °F 45 °F 37% 29.91 in - NE 10.4 mph - -  
5:00 PM 66.2 °F 44.6 °F 46% 29.89 in - NE 10.4 mph - N/A   Clear
5:30 PM 64.4 °F 46.4 °F 52% 29.92 in 6.2 mi NNE 10.4 mph - N/A   Scattered Clouds
6:00 PM 63 °F 47 °F 45% 29.92 in 19 mi NNE 10.4 mph - -   Partly Cloudy
6:00 PM 62.6 °F 46.4 °F 55% 29.92 in 6.2 mi NNE 10.4 mph - N/A   Mostly Cloudy
6:30 PM 64.4 °F 44.6 °F 49% 29.89 in 6.2 mi NNE 11.5 mph - N/A   Mostly Cloudy
7:00 PM 65 °F 43 °F 34% 29.91 in - NNE 10.4 mph - -  
7:00 PM 64.4 °F 42.8 °F 45% 29.89 in - NNE 10.4 mph - N/A   Clear
7:30 PM 64.4 °F 42.8 °F 45% 29.89 in - NNE 6.9 mph - N/A   Clear
8:00 PM 64 °F 44 °F 37% 29.91 in - North 10.4 mph - -  
8:00 PM 64.4 °F 44.6 °F 49% 29.89 in - North 10.4 mph - N/A   Clear
8:30 PM 64.4 °F 44.6 °F 49% 29.89 in - NNW 9.2 mph - N/A   Clear
9:00 PM 63 °F 46 °F 42% 29.91 in 19 mi NW 5.8 mph - -   Partly Cloudy
9:00 PM 62.6 °F 46.4 °F 55% 29.89 in - NW 5.8 mph - N/A   Clear
9:30 PM 62.6 °F 46.4 °F 55% 29.89 in - NNW 6.9 mph - N/A   Clear
10:00 PM 62 °F 46 °F 45% 29.90 in - NW 8.1 mph - -  
10:00 PM 62.6 °F 46.4 °F 55% 29.89 in - NW 8.1 mph - N/A   Clear
10:30 PM 60.8 °F 46.4 °F 59% 29.89 in - North 5.8 mph - N/A   Clear
11:00 PM 59 °F 47 °F 55% 29.89 in - NNW 5.8 mph - -  
11:00 PM 59.0 °F 46.4 °F 63% 29.89 in - NNW 5.8 mph - N/A   Clear
11:30 PM 59.0 °F 46.4 °F 63% 29.86 in - North 5.8 mph - N/A   Clear